FENGYUN 1C DEB

Satellite information

Favourite Embed

Satellite Type and Status

DEBRISIN ORBIT

Key statistics

Satellite FENGYUN 1C DEB at a glance.

Uptime

9499

Days in orbit

Revolutions

≈ 14.2

Per day

Orbit

SSO

Sun Synchronous Orbit

Inclination

98.6

Latest

Satellite identification and parameters

Extended collection of information and parameters for FENGYUN 1C DEB.

Object identification

Identified? True

Debris? True

Object name: FENGYUN 1C DEB

International designator: 1999-025CTU

Object number (NORAD): 32174

Object ID (CCSDS): 32174

Country: PEOPLES REPUBLIC OF CHINA (PRC)

Current information (Y/N): Y

RCS size: SMALL

Orbital parameters

Period: 101.58 minutes

Inclination: 98.6195 deg

SMA: 7211.619 km

Apoapsis: 943.963 km

Periapsis: 723.006 km

RAAN: 199.4828 deg

Eccentricy: 0.0153195

Argument of periapsis: 147.3554 deg

Mean anomaly: 213.7205 deg

Mean motion: 14.17599515 rev/day

Mean motion (dot): 0.00000706 rev/day2

B* drag term: 0.00032767 1/REarth

Two-line elements (TLE)

Creation date: May 11, 2025, 6:36 a.m.

Reference frame: TEME

Reference center: EARTH

Epoch: May 10, 2025, 9:29 p.m. UTC

TLE line 0: 0 FENGYUN 1C DEB

TLE line 1: 1 32174U 99025CTU 25130.89524161 .00000706 00000-0 32767-3 0 9990

TLE line 2: 2 32174 98.6195 199.4828 0153195 147.3554 213.7205 14.17599515918860

Live tracking on map

Real-time ground track for satellite FENGYUN 1C DEB.

In-orbit conjunctions

A list of the most updated potential collisions computed for object FENGYUN 1C DEB.

Target Orbit TCA Probability of collision Miss distance Type
CZ-6A DEB LEO 2025-03-04 16:29:15 0.000252066 234.0 (m) DEBRIS
SL-8 DEB * LEO 2024-08-04 10:16:47 0.0001229672 397.0 (m) DEBRIS

Associated space launch

Chinese polar orbiting meteorological satellite

FENGYUN 1C DEB was lifted into orbit during the mission ‘Long March 4B | Feng Yun 1C’, on board a Long March 4B space rocket.

The launch took place on May 10, 1999, 1:33 a.m. from Launch Complex 7.

For more information about the launch, click the button.

Launch to space Long March 4B | Feng Yun 1C
Long March 4B | Feng Yun 1C

Agency: N/A

Status: Launch Successful

Launch date: May 10, 1999, 1:33 a.m. UTC

Rocket: Long March 4B

Launch pad: Launch Complex 7

Location: Taiyuan Satellite Launch Center, People's Republic of China

...

Latest news about this satellite

There are no fresh news available about this satellite. Check back as we update our databases every day.


Newsletter sign-up

Weekly statistics, charts and insights to help you stay on top of the space industry.